• Processing (Info)

  • MPEC 2004-Y14 : COMET P/2004 V5 = 2003 YM159 (LINEAR-HILL)

    The following Minor Planet Electronic Circular may be linked-to from your own Web pages, but must not otherwise be redistributed electronically.

    A form allowing access to any MPEC is at the bottom of this page.


    Read MPEC 2004-Y13 Read MPEC 2004-Y15


    M.P.E.C. 2004-Y14                                Issued 2004 Dec. 18, 16:47 UT
    
         The Minor Planet Electronic Circulars contain information on unusual
             minor planets and routine data on comets.  They are published
       on behalf of Commission 20 of the International Astronomical Union by the
              Minor Planet Center, Smithsonian Astrophysical Observatory,
                              Cambridge, MA 02138, U.S.A.
    
                      Supported in part by the Brinson Foundation
                 Prepared using the Tamkin Foundation Computer Network
    
                                  MPC@CFA.HARVARD.EDU
              URL http://cfa-www.harvard.edu/iau/mpc.html  ISSN 1523-6714
    
                      COMET P/2004 V5 = 2003 YM159 (LINEAR-HILL)
    
    Observations:
        PK04V05a  C2004 12 08.02645 09 45 04.60 +36 31 58.2          18.0 N EY014A32
        PK04V05a  C2004 12 08.03767 09 45 04.69 +36 32 01.8          17.8 N EY014A32
        PK04V05a   2004 12 10.75972 09 45 33.75 +36 44 09.2          17.5 T EY014372
        PK04V05a   2004 12 10.77847 09 45 33.81 +36 44 14.6                 EY014372
        PK04V05a  C2004 12 13.98637 09 45 57.82 +36 59 03.4          17.7 N EY014213
        PK04V05a  C2004 12 14.02789 09 45 58.03 +36 59 15.3          17.7 N EY014213
        PK04V05a  C2004 12 14.06761 09 45 58.21 +36 59 27.3          17.7 N EY014213
        PK04V05a  C2004 12 14.08545 09 45 58.26 +36 59 32.0                 EY014246
        PK04V05a  C2004 12 14.08628 09 45 58.26 +36 59 32.1                 EY014246
        PK04V05a  C2004 12 14.08692 09 45 58.25 +36 59 32.2                 EY014246
        PK04V05a  C2004 12 14.08763 09 45 58.27 +36 59 32.5                 EY014246
        PK04V05a  C2004 12 14.08836 09 45 58.28 +36 59 32.7                 EY014246
        PK04V05a  C2004 12 14.08910 09 45 58.30 +36 59 32.9                 EY014246
        PK04V05a  C2004 12 15.04703 09 46 03.14 +37 04 05.2                 EY014246
        PK04V05a  C2004 12 15.04772 09 46 03.14 +37 04 05.3                 EY014246
        PK04V05a  C2004 12 15.04829 09 46 03.13 +37 04 05.6                 EY014246
        PK04V05a  C2004 12 15.04894 09 46 03.15 +37 04 05.9                 EY014246
        PK04V05a  C2004 12 16.09251 09 46 07.24 +37 09 05.2                 EY014246
        PK04V05a  C2004 12 16.09315 09 46 07.25 +37 09 05.4                 EY014246
        PK04V05a  C2004 12 16.09426 09 46 07.25 +37 09 05.7                 EY014246
        PK04V05a  C2004 12 16.09677 09 46 07.28 +37 09 06.2                 EY014246
        PK04V05a  C2004 12 16.09752 09 46 07.24 +37 09 06.7                 EY014246
        PK04V05a  C2004 12 16.82337 09 46 09.40 +37 12 37.1          17.7 T EY014360
        PK04V05a  C2004 12 16.82758 09 46 09.40 +37 12 38.5                 EY014360
        PK04V05b   2004 12 08.78090 09 45 04.00 +36 36 02.1          17.9 T EY014372
        PK04V05b   2004 12 08.82465 09 45 04.40 +36 36 12.8                 EY014372
        PK04V05b   2004 12 10.75972 09 45 24.37 +36 44 52.0          18.0 T EY014372
        PK04V05b   2004 12 10.77847 09 45 24.57 +36 44 56.6                 EY014372
        PK04V05b  C2004 12 13.98637 09 45 48.17 +36 59 47.0          18.2 N EY014213
        PK04V05b  C2004 12 14.02789 09 45 48.40 +36 59 58.9          18.2 N EY014213
        PK04V05b  C2004 12 14.06761 09 45 48.61 +37 00 10.7          18.2 N EY014213
        PK04V05b  C2004 12 14.08545 09 45 48.64 +37 00 15.6                 EY014246
        PK04V05b  C2004 12 14.08628 09 45 48.67 +37 00 15.6                 EY014246
        PK04V05b  C2004 12 14.08692 09 45 48.67 +37 00 15.7                 EY014246
        PK04V05b  C2004 12 14.08763 09 45 48.66 +37 00 15.8                 EY014246
        PK04V05b  C2004 12 14.08836 09 45 48.63 +37 00 16.2                 EY014246
        PK04V05b  C2004 12 14.08910 09 45 48.67 +37 00 16.4                 EY014246
        PK04V05b  C2004 12 15.04703 09 45 53.47 +37 04 48.7                 EY014246
        PK04V05b  C2004 12 15.04772 09 45 53.49 +37 04 48.8                 EY014246
        PK04V05b  C2004 12 15.04829 09 45 53.50 +37 04 49.3                 EY014246
        PK04V05b  C2004 12 15.04894 09 45 53.51 +37 04 49.6                 EY014246
        PK04V05b  C2004 12 16.09251 09 45 57.56 +37 09 49.7                 EY014246
        PK04V05b  C2004 12 16.09315 09 45 57.57 +37 09 50.0                 EY014246
        PK04V05b  C2004 12 16.09426 09 45 57.59 +37 09 50.4                 EY014246
        PK04V05b  C2004 12 16.09677 09 45 57.58 +37 09 50.7                 EY014246
        PK04V05b  C2004 12 16.09752 09 45 57.59 +37 09 51.1                 EY014246
        PK04V05b  C2004 12 16.82337 09 45 59.62 +37 13 21.6          18.5 T EY014360
        PK04V05b  C2004 12 16.82758 09 45 59.63 +37 13 22.6                 EY014360
    
    Observer details:
    213 Observatorio Montcabre.  Observer R. Naves.  Measurer M. Campas.  0.30-m
        f/6.6 Schmidt-Cassegrain + CCD.
    246 Klet Observatory-KLENOT.  Observers M. Tichy, M. Kocer, J. Ticha.
        Measurer M. Tichy.  1.06-m KLENOT Telescope + CCD.
    360 Kuma Kogen.  Observer A. Nakamura.  0.60-m f/5.8 Ritchey-Chretien + CCD.
    372 Geisei.  Observer T. Seki.  0.60-m f/3.5 reflector.
    A32 Panker.  Observer H. Denzau.  0.36-m f/5.5 Schmidt-Cassegrain + CCD.
    
    Orbital elements:
        P/2004 V5-A (LINEAR-Hill)
    Epoch 2005 Mar. 11.0 TT = JDT 2453440.5
    T 2005 Feb. 28.76567 TT                                 MPC
    q   4.4108046            (2000.0)            P               Q
    n   0.04396686     Peri.   87.69298     -0.67199978     -0.69857389
    a   7.9503410      Node    47.85905     +0.47595729     -0.66168668
    e   0.4452056      Incl.   19.35821     +0.56734553     -0.27233299
    P  22.42
    From 156 observations 2003 Dec. 17-2004 Dec. 16, mean residual 0".55.
    
        P/2004 V5-B (LINEAR-Hill)
    T 2005 Feb. 28.5281 TT                                  MPC
    q   4.411779             (2000.0)            P               Q
    n   0.0438886      Peri.   87.6115      -0.6712682      -0.6992357
    a   7.959791       Node    47.8825      +0.4766240      -0.6612729
    e   0.445742       Incl.   19.3603      +0.5676518      -0.2716387
    P  22.5
    From 118 observations 2004 Nov. 10-Dec. 16.
    
    Brian G. Marsden             (C) Copyright 2004 MPC           M.P.E.C. 2004-Y14
    

    Read MPEC 2004-Y13 Read MPEC 2004-Y15


    MPEC number:

    Enter an MPEC number in one of the following forms:

    • 1997-B01 (the full form)
    • J97B01 (the packed version of the full form)
    • B01 (the abbreviated form)